Weather History for Farmington, MO

Change the Weather History Date:

Sunday, May 19, 2013

  Actual Average Record
Temperature  
Mean Temperature 76 °F -  
Max Temperature 87 °F 73 °F 89 °F (1998)
Min Temperature 66 °F 52 °F 37 °F (2002)
Cooling Degree Days 12    
Growing Degree Days 26 (Base 50)    
Moisture  
Dew Point 67 °F    
Average Humidity 72    
Maximum Humidity 94    
Minimum Humidity 43    
Precipitation  
Precipitation 0.00 in - - ()
Sea Level Pressure  
Sea Level Pressure 29.89 in    
Wind  
Wind Speed 7 mph (South)    
Max Wind Speed 17 mph    
Max Gust Speed 26 mph    
Visibility 9 miles    
Events      
Averages and records for this station are not official NWS values.
T = Trace of Precipitation, MM = Missing Value Source: NWS Daily Summary

Daily Weather History Graph

Daily Weather History Graph

Search for Another Location

Airport:

Trip Planner

Search our weather history database for the weather conditions in past years. The results will help you decide how hot, cold, wet, or windy it might be!

Date:

Astronomy

May. 19, 2013 Rise Set
Actual Time 5:48 AM CDT 8:08 PM CDT
Civil Twilight 5:18 AM CDT 8:38 PM CDT
Nautical Twilight 4:42 AM CDT 9:14 PM CDT
Astronomical Twilight 4:02 AM CDT 9:55 PM CDT
Moon 2:18 PM CDT (5/19) 2:05 AM CDT (5/19)
Length of Visible Light 15h 19m
Length of Day
14h 19m
Waxing Gibbous, 65% of the Moon is Illuminated
May 19
Waxing Gibbous
May 24
Full
May 31
Last Quarter
Jun 8
New
Jun 16
First Quarter

Hourly Weather History & Observations

Time (CDT) Temp. Heat Index Dew Point Humidity Pressure Visibility Wind Dir Wind Speed Gust Speed Precip Events Conditions
12:15 AM 71.6 °F - 64.4 °F 78% 29.94 in 10.0 mi South 3.5 mph - N/A   Mostly Cloudy
12:35 AM 71.6 °F - 64.4 °F 78% 29.95 in 10.0 mi South 4.6 mph - N/A   Mostly Cloudy
12:55 AM 71.6 °F - 64.4 °F 78% 29.94 in 10.0 mi SSE 6.9 mph - N/A   Overcast
1:15 AM 71.6 °F - 64.4 °F 78% 29.93 in 10.0 mi SSE 4.6 mph - N/A   Mostly Cloudy
1:35 AM 71.6 °F - 64.4 °F 78% 29.92 in 10.0 mi SSE 6.9 mph - N/A   Mostly Cloudy
1:55 AM 69.8 °F - 64.4 °F 83% 29.93 in 10.0 mi SSE 4.6 mph - N/A   Scattered Clouds
2:15 AM 69.8 °F - 64.4 °F 83% 29.92 in 10.0 mi SSE 4.6 mph - N/A   Mostly Cloudy
2:35 AM 69.8 °F - 64.4 °F 83% 29.92 in 10.0 mi SSE 3.5 mph - N/A   Partly Cloudy
2:55 AM 69.8 °F - 64.4 °F 83% 29.92 in 10.0 mi Calm Calm - N/A   Scattered Clouds
3:15 AM 69.8 °F - 64.4 °F 83% 29.91 in 10.0 mi Calm Calm - N/A   Mostly Cloudy
3:35 AM 69.8 °F - 64.4 °F 83% 29.91 in 10.0 mi Calm Calm - N/A   Mostly Cloudy
3:55 AM 69.8 °F - 64.4 °F 83% 29.91 in 9.0 mi SSE 3.5 mph - N/A   Mostly Cloudy
4:15 AM 69.8 °F - 64.4 °F 83% 29.92 in 10.0 mi Calm Calm - N/A   Mostly Cloudy
4:35 AM 69.8 °F - 64.4 °F 83% 29.93 in 10.0 mi NE 4.6 mph - N/A   Mostly Cloudy
4:55 AM 69.8 °F - 64.4 °F 83% 29.94 in 10.0 mi Calm Calm - N/A   Overcast
5:15 AM 69.8 °F - 64.4 °F 83% 29.93 in 10.0 mi ESE 3.5 mph - N/A   Mostly Cloudy
5:35 AM 68.0 °F - 64.4 °F 88% 29.91 in 10.0 mi ESE 6.9 mph - N/A   Partly Cloudy
5:55 AM 66.2 °F - 64.4 °F 94% 29.92 in 7.0 mi Calm Calm - N/A   Clear
6:15 AM 66.2 °F - 64.4 °F 94% 29.93 in 7.0 mi Calm Calm - N/A   Clear
6:35 AM 68.0 °F - 64.4 °F 88% 29.91 in 6.0 mi ESE 4.6 mph - N/A   Clear
7:15 AM 69.8 °F - 66.2 °F 88% 29.93 in 5.0 mi South 9.2 mph - N/A   Mostly Cloudy
7:35 AM 69.8 °F - 66.2 °F 88% 29.93 in 5.0 mi South 6.9 mph - N/A   Overcast
7:55 AM 71.6 °F - 68.0 °F 88% 29.92 in 5.0 mi South 8.1 mph - N/A   Overcast
8:15 AM 71.6 °F - 69.8 °F 94% 29.93 in 4.0 mi South 9.2 mph - N/A   Overcast
8:35 AM 73.4 °F - 69.8 °F 88% 29.93 in 4.0 mi SSW 11.5 mph - N/A   Overcast
8:55 AM 73.4 °F - 69.8 °F 88% 29.94 in 4.0 mi SSW 10.4 mph - N/A   Overcast
9:15 AM 73.4 °F - 69.8 °F 88% 29.95 in 5.0 mi SW 9.2 mph - N/A   Overcast
9:55 AM 75.2 °F - 71.6 °F 89% 29.96 in 5.0 mi SW 8.1 mph - N/A   Overcast
10:15 AM 75.2 °F - 69.8 °F 83% 29.96 in 5.0 mi SW 8.1 mph - N/A   Mostly Cloudy
10:35 AM 77.0 °F - 71.6 °F 83% 29.96 in 7.0 mi South 5.8 mph - N/A   Mostly Cloudy
10:55 AM 78.8 °F - 71.6 °F 78% 29.95 in 7.0 mi South 5.8 mph - N/A   Scattered Clouds
11:15 AM 80.6 °F 84.6 °F 71.6 °F 74% 29.93 in 8.0 mi SSE 6.9 mph - N/A   Clear
11:35 AM 82.4 °F 87.2 °F 71.6 °F 70% 29.92 in 8.0 mi SSE 9.2 mph - N/A   Clear
11:55 AM 82.4 °F 87.2 °F 71.6 °F 70% 29.92 in 8.0 mi SSE 9.2 mph - N/A   Clear
12:15 PM 84.2 °F 89.6 °F 71.6 °F 66% 29.91 in 10.0 mi SW 3.5 mph - N/A   Partly Cloudy
12:35 PM 84.2 °F 89.6 °F 71.6 °F 66% 29.90 in 9.0 mi SSE 10.4 mph - N/A   Partly Cloudy
12:55 PM 84.2 °F 89.6 °F 71.6 °F 66% 29.89 in 8.0 mi South 10.4 mph - N/A   Clear
1:15 PM 86.0 °F 91.8 °F 71.6 °F 62% 29.88 in 9.0 mi SSE 11.5 mph - N/A   Clear
1:35 PM 87.8 °F 93.8 °F 71.6 °F 58% 29.88 in 3.0 mi South 10.4 mph 17.3 mph N/A   Clear
2:15 PM 86.0 °F 91.8 °F 71.6 °F 62% 29.87 in 1.2 mi South 12.7 mph - N/A   Mostly Cloudy
2:35 PM 86.0 °F 91.8 °F 71.6 °F 62% 29.86 in 9.0 mi SSE 11.5 mph - N/A   Mostly Cloudy
3:15 PM 86.0 °F 91.8 °F 71.6 °F 62% 29.85 in 10.0 mi South 17.3 mph - N/A   Partly Cloudy
3:35 PM 87.8 °F 93.8 °F 71.6 °F 58% 29.84 in 10.0 mi South 17.3 mph 20.7 mph N/A   Partly Cloudy
3:55 PM 87.8 °F 93.8 °F 71.6 °F 58% 29.84 in 10.0 mi South 13.8 mph - N/A   Clear
4:15 PM 87.8 °F 92.6 °F 69.8 °F 55% 29.83 in 10.0 mi SSE 16.1 mph 24.2 mph N/A   Partly Cloudy
4:35 PM 87.8 °F 90.4 °F 66.2 °F 49% 29.82 in 10.0 mi South 13.8 mph 23.0 mph N/A   Clear
4:55 PM 87.8 °F 91.4 °F 68.0 °F 52% 29.82 in 10.0 mi SSE 17.3 mph 23.0 mph N/A   Clear
5:15 PM 87.8 °F 88.5 °F 62.6 °F 43% 29.82 in 10.0 mi South 10.4 mph 23.0 mph N/A   Clear
5:35 PM 86.0 °F 87.3 °F 64.4 °F 48% 29.81 in 10.0 mi SSE 15.0 mph 26.5 mph N/A   Clear
6:15 PM 84.2 °F 85.0 °F 62.6 °F 48% 29.81 in 10.0 mi South 17.3 mph 24.2 mph N/A   Clear
6:35 PM 82.4 °F 83.4 °F 62.6 °F 51% 29.80 in 10.0 mi South 15.0 mph 19.6 mph N/A   Clear
6:55 PM 82.4 °F 83.4 °F 62.6 °F 51% 29.79 in 10.0 mi SSE 16.1 mph 21.9 mph N/A   Clear
7:15 PM 80.6 °F 81.8 °F 62.6 °F 54% 29.79 in 10.0 mi South 17.3 mph 24.2 mph N/A   Clear
7:35 PM 80.6 °F 81.8 °F 62.6 °F 54% 29.80 in 10.0 mi South 11.5 mph 21.9 mph N/A   Clear
7:55 PM 80.6 °F 82.3 °F 64.4 °F 58% 29.81 in 10.0 mi South 11.5 mph 21.9 mph N/A   Clear
8:15 PM 78.8 °F - 64.4 °F 61% 29.81 in 10.0 mi SSE 11.5 mph - N/A   Clear
8:35 PM 78.8 °F - 64.4 °F 61% 29.82 in 10.0 mi SSE 10.4 mph - N/A   Clear
8:55 PM 77.0 °F - 64.4 °F 65% 29.82 in 10.0 mi SSE 12.7 mph 16.1 mph N/A   Clear
9:15 PM 77.0 °F - 64.4 °F 65% 29.83 in 10.0 mi SSE 12.7 mph 17.3 mph N/A   Clear
9:35 PM 77.0 °F - 64.4 °F 65% 29.84 in 10.0 mi South 11.5 mph - N/A   Clear
9:55 PM 75.2 °F - 64.4 °F 69% 29.85 in 10.0 mi South 12.7 mph 18.4 mph N/A   Clear
10:15 PM 77.0 °F - 66.2 °F 69% 29.87 in 10.0 mi South 10.4 mph 17.3 mph N/A   Mostly Cloudy
10:35 PM 77.0 °F - 66.2 °F 69% 29.87 in 10.0 mi South 10.4 mph 17.3 mph N/A   Overcast
10:55 PM 75.2 °F - 66.2 °F 73% 29.87 in 10.0 mi South 12.7 mph 19.6 mph N/A   Overcast
11:15 PM 75.2 °F - 66.2 °F 73% 29.89 in 10.0 mi SSW 12.7 mph 23.0 mph N/A   Overcast
11:35 PM 75.2 °F - 66.2 °F 73% 29.89 in 10.0 mi SSW 10.4 mph 18.4 mph N/A   Overcast
11:55 PM 75.2 °F - 66.2 °F 73% 29.88 in 10.0 mi South 12.7 mph - N/A   Mostly Cloudy